Current Weather Conditions: station 63103

sailwx.info

Last reported at 2014-Sep-09 06:33 UTC.
Time now 2015-Mar-30 05:52 UTC

Location: N 61°12' E 001°06'.
View on Google Maps.

See reports from other nearby stations

  
Tides and Currents Weather Stations Pressure Air Temp Water Temp Dewpoint Dewpoint Depression Visibility Wind Speed Wind Dir Waves Ship Positions
date/time (UTC)wind fromknots sea level pressurealtimeterstation pressurevisibilityair tempwater tempwave heightnotes
2015-Mar-30 04:00 150 5 3.1 1.7
2015-Mar-30 03:00 150 5 4.8 1.9
2015-Mar-30 02:00 130 3 4.8 1.9
2015-Mar-30 01:00 140 3 4.5 1.9
2015-Mar-30 00:00 160 3 4.5 2.2
2015-Mar-29 23:00 110 3 4.3 2.1
2015-Mar-29 22:00 100 4 4.0 2.4
2015-Mar-29 21:00 360 1 5.2 2.4
2015-Mar-29 20:00 290 3 5.6 2.3
2015-Mar-29 19:00 310 1 5.4 2.5
2015-Mar-29 18:00 290 3 5.6 2.5
2015-Mar-29 17:00 300 3 5.6 2.9
2015-Mar-29 16:00 250 4 4.8 2.8
2015-Mar-29 15:00 240 3 5.6 3.0
2015-Mar-29 14:00 250 4 5.7 3.1
2015-Mar-29 13:00 250 7 4.8 3.1
2015-Mar-29 12:00 270 8 5.6 3.1
2015-Mar-29 11:00 270 8 5.3 3.2
2015-Mar-29 10:00 270 10 5.2 3.4
2015-Mar-29 09:00 290 10 5.2 3.6
2015-Mar-29 08:00 300 12 5.8 3.8
2015-Mar-29 07:00 270 15 5.5 4.0
2015-Mar-29 06:00 280 17 5.7 4.1
2015-Mar-29 05:00 290 17 5.7 4.3
2015-Mar-29 04:00 280 22 5.6 4.5
2015-Mar-29 03:00 280 25 5.9 4.7
2015-Mar-29 02:00 270 24 6.2 5.1
2015-Mar-29 01:00 270 24 5.8 5.0
2015-Mar-29 00:00 270 25 6.0 5.4
2015-Mar-28 23:00 280 26 6.3 5.8
2015-Mar-28 22:00 280 23 6.0 5.7
2015-Mar-28 21:00 290 22 6.2 6.0
2015-Mar-28 20:00 260 17 6.4 6.8
2015-Mar-28 19:00 180 24 7.4 6.4
2015-Mar-28 18:00 170 31 6.8 7.0
2015-Mar-28 17:00 160 36 5.9 6.9
2015-Mar-28 16:00 160 42 5.3 5.6
2015-Mar-28 15:00 160 41 5.1 5.2
2015-Mar-28 14:00 160 40 4.9 4.4
2015-Mar-28 13:00 160 36 5.0 3.6
2015-Mar-28 12:00 170 37 4.5 3.2
2015-Mar-28 11:00 170 32 6.8 2.8
2015-Mar-28 10:00 170 27 6.7 2.7
2015-Mar-28 09:00 170 25 6.8 2.6
2015-Mar-28 08:00 180 24 6.6 2.4
2015-Mar-28 07:00 190 19 6.7 2.4
2015-Mar-28 06:00 200 17 6.4 2.6
2015-Mar-28 05:00 210 17 6.5 2.8